Current Version              Previous Version:    01  02  03  04  05  06  07  08  09  10  11  12  13  14  15  16  17  18  19  20  21  22  23  24  25  26  27  28  29  30  
   31  32  33  34  35  36  37  38  39  40  41  42  43  44  45  46  47  48  49  50  51  52  53  54  55  56  57  58  59  60  

[Printable]
083
ASUS44 KEWX 291202
RWRTX
SOUTH TEXAS REGIONAL WEATHER ROUNDUP
NATIONAL WEATHER SERVICE AUSTIN/SAN ANTONIO TX
700 AM CDT TUE JUL 29 2014

NOTE: "FAIR" INDICATED FEW OR NO CLOUDS BELOW 12,000 FEET WITH NO
SIGNIFICANT WEATHER AND/OR OBSTRUCTIONS TO VISIBILITY.

* - THESE STATIONS ARE NOT NWS OR FAA STATIONS...AND ARE NOT SUBJECT
    TO NWS AND FAA QUALITY CONTROL.

TXZ171-172-183>190-291300-
TEXAS HILL COUNTRY AND EDWARDS PLATEAU

CITY           SKY/WX    TMP DP  RH WIND       PRES   REMARKS
JUNCTION       CLEAR     72  65  78 CALM      30.14R HAZE
6HR MIN TEMP:  71; 6HR MAX TEMP:  82;

*LLANO         CLEAR     73  70  88 CALM      30.14S
BURNET         CLEAR     75  68  78 NE6       30.14R
6HR MIN TEMP:  74; 6HR MAX TEMP:  80;

*HORSESHOE BAY CLEAR     72  66  81 CALM      30.11S
6HR MIN TEMP:  72; 6HR MAX TEMP:  80;

*KERRVILLE     CLEAR     72  69  90 CALM      30.13S
*FREDERICKSBRG CLEAR     69  62  78 CALM      30.13S
6HR MIN TEMP:  69; 6HR MAX TEMP:  80;

*ROCKSPRINGS   CLEAR     72  64  78 CALM      30.17S
*BOERNE STAGE  PTCLDY    68  61  77 CALM      30.13S
*CASTROVILLE   PTCLDY    71  65  81 CALM      30.10S
HONDO          CLEAR     70  66  87 NE6       30.11R
6HR MIN TEMP:  70; 6HR MAX TEMP:  81;

*UVALDE        CLEAR     73  65  76 NE5       30.09R
6HR MIN TEMP:  73; 6HR MAX TEMP:  85;

DEL RIO        CLEAR     79  66  64 E6        30.06R
6HR MIN TEMP:  78; 6HR MAX TEMP:  87;

LAUGHLIN AFB   NOT AVBL
CARRIZO SPRGS  CLEAR     72  68  88 E3        30.05R
$$

TXZ173-191>194-202-209-217>225-228-291300-
CENTRAL AND SOUTH CENTRAL TEXAS

CITY           SKY/WX    TMP DP  RH WIND       PRES   REMARKS
GEORGETOWN     CLEAR     73  70  88 CALM      30.11R
AUSTIN/BERGSTM PTCLDY    71  69  93 CALM      30.08R
6HR MIN TEMP:  70; 6HR MAX TEMP:  82;

AUSTIN/MABRY   CLEAR     76  72  87 VRB3      30.09R
6HR MIN TEMP:  76; 6HR MAX TEMP:  83;

*AUSTIN/EXEC   PTCLDY    73  72  94 N3        30.09R
*LAGO VISTA    PTCLDY    73  69  86 N3        30.11S
SAN MARCOS     CLEAR     72  64  78 CALM      30.10R
NEW BRAUNFELS  PTCLDY    71  68  90 SW5       30.07S
6HR MIN TEMP:  71; 6HR MAX TEMP:  79;

RANDOLPH AFB   PTCLDY    73  67  82 S3        30.10R
6HR MIN TEMP:  72; 6HR MAX TEMP:  81;

PT SAN ANTONIO PTCLDY    74  67  79 CALM      30.09R
6HR MIN TEMP:  72; 6HR MAX TEMP:  81;

SAN ANTONIO    PTCLDY    76  68  76 CALM      30.09S
6HR MIN TEMP:  75; 6HR MAX TEMP:  83;

STINSON FIELD  CLEAR     73  68  84 E3        30.07R
6HR MIN TEMP:  72; 6HR MAX TEMP:  81;

*PLEASANTON    CLEAR     70  68  91 N5        30.08R
6HR MIN TEMP:  70; 6HR MAX TEMP:  80;

*LA GRANGE     PTCLDY    76  75  96 CALM      30.06R
6HR MIN TEMP:  75; 6HR MAX TEMP:  82;

*GIDDINGS      PTCLDY    73  70  92 CALM      30.11R
*GONZALES      PTCLDY    75  74  98 CALM      30.07R
$$

TXZ163>164-176>182-195>201-210>213-226-227-235-291300-
SOUTHEAST TEXAS

CITY           SKY/WX    TMP DP  RH WIND       PRES   REMARKS
COLLEGE STN    PTCLDY    77  71  82 CALM      30.08R
6HR MIN TEMP:  76; 6HR MAX TEMP:  80;

*BRYAN         PTCLDY    74  71  91 CALM      30.08R
6HR MIN TEMP:  73; 6HR MAX TEMP:  76;

*CALDWELL      PTCLDY    72  72 100 CALM      30.11R
*CROCKETT      MOCLDY    77  75  94 CALM      30.12R
*BRENHAM       PTCLDY    74  71  90 CALM      30.08R
HUNTSVILLE     MOCLDY    74  71  91 CALM      30.08R
6HR MIN TEMP:  74; 6HR MAX TEMP:  77;

CONROE         PTCLDY    73  72  96 CALM      30.08R
6HR MIN TEMP:  73; 6HR MAX TEMP:  77;

HOUSTON BUSH   MOCLDY    80  76  87 SW3       30.06S
6HR MIN TEMP:  79; 6HR MAX TEMP:  83;

HOUSTON HOBBY  MOCLDY    81  76  84 NW5       30.06S
6HR MIN TEMP:  80; 6HR MAX TEMP:  81;

*HOUSTON SW AP MOCLDY   N/A N/A N/A CALM      30.08S HAZE
PEARLAND       PTCLDY    80  76  87 W3        30.08S
6HR MIN TEMP:  80; 6HR MAX TEMP:  81;

HOUSTON HOOKS  CLEAR     78  76  93 W3        30.07R
6HR MIN TEMP:  77; 6HR MAX TEMP:  81;

ELLINGTON FLD  MOCLDY    81  77  89 W5        30.08S
SUGAR LAND     PTCLDY    79  76  90 W3        30.07S FOG
6HR MIN TEMP:  78; 6HR MAX TEMP:  80;

*HOUSTON EXEC  CLEAR     75  75 100 S3        30.09R FOG
*CLEVELAND MUN CLEAR     74  73  96 CALM      30.07S FOG
*WHARTON       FOG       74  74  97 CALM      30.08S VSB<1/4
$$

TXZ214>216-236>238-291300-
THE UPPER TEXAS COAST

CITY           SKY/WX    TMP DP  RH WIND       PRES   REMARKS
*ORANGE        MOCLDY    76  76 100 CALM      30.08R
6HR MIN TEMP:  76; 6HR MAX TEMP:  82;

PORT ARTHUR    CLOUDY    80  72  76 N7        30.07R
6HR MIN TEMP:  79; 6HR MAX TEMP:  82; 6HR PCP: TRACE;

GALVESTON      PTCLDY    81  78  91 NW7       30.08R
6HR MIN TEMP:  81; 6HR MAX TEMP:  83;

ANGLETON       FOG       75  74  96 CALM      30.07S VSB 1/2
6HR MIN TEMP:  74; 6HR MAX TEMP:  79;

*BAY CITY        N/A     78  78 100 NW3       30.07R FOG
PALACIOS       CLEAR     77  74  90 N3        30.07R FOG
6HR MIN TEMP:  77; 6HR MAX TEMP:  84;

$$

TXZ229>234-239>247-291300-
TEXAS COASTAL BEND AND RIO GRANDE PLAINS

CITY           SKY/WX    TMP DP  RH WIND       PRES   REMARKS
VICTORIA       PTCLDY    75  73  93 CALM      30.07R FOG
6HR MIN TEMP:  75; 6HR MAX TEMP:  81;

*BEEVILLE      FOG       72  72 100 S3        30.06S VSB<1/4
6HR MIN TEMP:  71; 6HR MAX TEMP:  78;

ROCKPORT       PTCLDY    75  74  96 CALM      30.06R
*PORT ARANSAS  PTCLDY    77  76  98 S6        30.05R
*PORT LAVACA     N/A     73  72  97 CALM      30.06S FOG
6HR MIN TEMP:  72; 6HR MAX TEMP:  79;

*INGLESIDE     PTCLDY    80  76  89 S7        30.05R
CORPUS CHRISTI PTCLDY    71  70  96 CALM      30.06R FOG
6HR MIN TEMP:  71; 6HR MAX TEMP:  78;

CORPUS NAS     PTCLDY    77  76  96 CALM      30.06R
6HR MIN TEMP:  77; 6HR MAX TEMP:  81;

*ROBSTOWN      NOT AVBL
ALICE          FOG       72  72 100 NE3       30.06R VSB 1/4
6HR MIN TEMP:  70; 6HR MAX TEMP:  79;

KINGSVILLE NAS FOG       71  71 100 CALM      30.05R VSB 1
6HR MIN TEMP:  70; 6HR MAX TEMP:  79;

COTULLA        CLEAR     75  70  84 E6        30.06R
6HR MIN TEMP:  75; 6HR MAX TEMP:  84;

*FAITH RANCH   CLEAR     77  68  73 SE6       30.05S
LAREDO         CLEAR     76  70  82 E7        30.07S
6HR MIN TEMP:  76; 6HR MAX TEMP:  87;

$$

TXZ248>255-291300-
DEEP SOUTH TEXAS

CITY           SKY/WX    TMP DP  RH WIND       PRES   REMARKS
BROWNSVILLE    CLEAR     76  75  97 SE3       30.05R
6HR MIN TEMP:  75; 6HR MAX TEMP:  78;

PORT ISABEL    CLEAR     77  74  90 S3        30.04R FOG
6HR MIN TEMP:  77; 6HR MAX TEMP:  81;

*SOUTH PADRE     N/A     77  75  94 CALM      30.05R
HARLINGEN      CLEAR     72  72 100 NE3       30.04R FOG
6HR MIN TEMP:  72; 6HR MAX TEMP:  76;

*HEBBRONVILLE  CLEAR     73  71  93 NE3       30.07R FOG
MCALLEN        CLEAR     76  75  97 S3        30.05R
6HR MIN TEMP:  76; 6HR MAX TEMP:  81;

*WESLACO       CLEAR     76  73  87 SE3       30.04R
FALFURRIAS       N/A     55  32  41 SE3       30.04F
6HR MIN TEMP:  55; 6HR MAX TEMP:  72;

EDINBURG       CLEAR     75  72  90 SE5       30.05S
6HR MIN TEMP:  74; 6HR MAX TEMP:  79;

*ZAPATA        NOT AVBL
$$

TXZ213>215-236>238-242>244-246-247-251-254-255-291300-
CMAN STATIONS

STATION/POSITION TIME  TEMP    WIND        PRES    WAVE
                       AIR SEA DIR/SP/G            HT/PER
                 (UTC) (F)     (DEG/KT/KT) (MB)    (FT/S)